カタログに戻る

FENGYUN 1C DEB

運用中SSO
NORAD 31882·DEBRIS·🇨🇳 China

打ち上げ May 10, 1999 から Taiyuan Satellite Launch Center

Loading…

次のパス (今後24時間)

TLE

最新Source: Space-Track

元期: Sep 14, 2026, 12:53 UTC

1 31882U 99025CKH 26257.53734620  .00000679  00000-0  38175-3 0  9998
2 31882  98.9209 184.2038 0035560 161.8030 198.4423 14.13541410625328

AllMySatでFENGYUN 1C DEBをリアルタイム追跡

Download on the App Store